VIR657 EGLL-DGAA

Flight info

Callsign VIR657
Flight time 6h 26m
Altitude 37000
Route MODMI1J MODMI M185 MID L612 BOGNA UL612 VEULE DCT DEKOD DCT DISAK DCT DIRMO DCT ETAMO DCT ADEKA DCT MOKDI DCT MEN DCT BADAM DCT KANIG DCT KENAS DCT POS N855 GENIO DCT MOGIL UB31 ZEM UZ333 KAHIL UB726 GHA UA615 TMS UA604 EREBO DCT MIGNI DCT ABALA DCT IPUTA DCT TATAT DCT KILMO DCT LITEX LITEX1B
Aircraft A343/H-SDE2E3FGHIJ4J5M1RWXY/LB1D1

Departure

Time 2026-04-20 22:36
Airport London Heathrow Airport (EGLL)

Arrival

Time 2026-04-21 05:02
Airport Kotoka International Airport (DGAA)
Time Latitude Longitude Altitude Speed Heading
2026-04-20 21:48 51.47021 -0.46529 90 ft 0 kts 55°
2026-04-20 22:05 51.47021 -0.46530 90 ft 0 kts 55°
2026-04-20 22:19 51.47011 -0.46554 94 ft 4 kts 55°
2026-04-20 22:19 51.46995 -0.46590 93 ft 4 kts 55°
2026-04-20 22:19 51.46984 -0.46618 92 ft 4 kts 77°
2026-04-20 22:20 51.46987 -0.46654 91 ft 4 kts 134°
2026-04-20 22:20 51.47007 -0.46678 94 ft 4 kts 145°
2026-04-20 22:20 51.47018 -0.46690 93 ft 0 kts 145°
2026-04-20 22:25 51.47017 -0.46689 90 ft 1 kts 145°
2026-04-20 22:25 51.46984 -0.46653 94 ft 8 kts 146°
2026-04-20 22:25 51.46937 -0.46601 94 ft 8 kts 146°
2026-04-20 22:26 51.46887 -0.46546 94 ft 9 kts 146°
2026-04-20 22:26 51.46834 -0.46487 95 ft 9 kts 145°
2026-04-20 22:26 51.46775 -0.46435 93 ft 10 kts 162°
2026-04-20 22:27 51.46665 -0.46501 94 ft 10 kts 258°
2026-04-20 22:27 51.46660 -0.46618 95 ft 11 kts 269°
2026-04-20 22:27 51.46659 -0.46760 94 ft 15 kts 269°
2026-04-20 22:27 51.46658 -0.46933 94 ft 16 kts 270°
2026-04-20 22:28 51.46657 -0.47110 93 ft 16 kts 269°
2026-04-20 22:28 51.46656 -0.47293 93 ft 17 kts 269°
2026-04-20 22:28 51.46656 -0.47481 93 ft 17 kts 270°
2026-04-20 22:28 51.46655 -0.47672 93 ft 17 kts 269°
2026-04-20 22:29 51.46654 -0.47867 93 ft 18 kts 269°
2026-04-20 22:29 51.46654 -0.48063 93 ft 18 kts 270°
2026-04-20 22:29 51.46654 -0.48261 90 ft 18 kts 270°
2026-04-20 22:29 51.46654 -0.48462 91 ft 18 kts 270°
2026-04-20 22:30 51.46652 -0.48652 90 ft 12 kts 268°
2026-04-20 22:30 51.46634 -0.48731 95 ft 4 kts 228°
2026-04-20 22:30 51.46615 -0.48752 93 ft 0 kts 211°
2026-04-20 22:31 51.46614 -0.48753 93 ft 1 kts 210°
2026-04-20 22:31 51.46612 -0.48754 94 ft 0 kts 209°
2026-04-20 22:32 51.46610 -0.48756 94 ft 3 kts 208°
2026-04-20 22:32 51.46524 -0.48776 92 ft 14 kts 164°
2026-04-20 22:33 51.46481 -0.48692 95 ft 6 kts 99°
2026-04-20 22:33 51.46481 -0.48673 93 ft 1 kts 93°
2026-04-20 22:33 51.46481 -0.48665 93 ft 2 kts 90°
2026-04-20 22:33 51.46481 -0.48658 93 ft 0 kts 88°
2026-04-20 22:34 51.46481 -0.48657 93 ft 0 kts 88°
2026-04-20 22:34 51.46484 -0.48518 93 ft 37 kts 88°
2026-04-20 22:35 51.46485 -0.47807 94 ft 89 kts 90°
2026-04-20 22:35 51.46489 -0.46572 94 ft 131 kts 90°
2026-04-20 22:35 51.46491 -0.44967 325 ft 149 kts 88°
2026-04-20 22:35 51.46481 -0.43225 517 ft 175 kts 91°
2026-04-20 22:36 51.46167 -0.41437 1259 ft 167 kts 116°
2026-04-20 22:36 51.45338 -0.40108 1904 ft 175 kts 140°
2026-04-20 22:36 51.44230 -0.39075 2322 ft 197 kts 146°
2026-04-20 22:36 51.42922 -0.38010 2649 ft 224 kts 150°
2026-04-20 22:37 51.41417 -0.36970 3158 ft 244 kts 154°
2026-04-20 22:37 51.39723 -0.36326 3792 ft 261 kts 179°
2026-04-20 22:37 51.37939 -0.37064 4533 ft 271 kts 203°
2026-04-20 22:37 51.36217 -0.38382 5315 ft 278 kts 206°
2026-04-20 22:38 51.34472 -0.39775 6012 ft 283 kts 206°
2026-04-20 22:38 51.32705 -0.41169 6865 ft 284 kts 206°
2026-04-20 22:38 51.30928 -0.42568 7737 ft 284 kts 207°
2026-04-20 22:38 51.29149 -0.43960 8604 ft 285 kts 205°
2026-04-20 22:39 51.27230 -0.44699 9416 ft 286 kts 180°
2026-04-20 22:39 51.25281 -0.44110 10236 ft 287 kts 160°
2026-04-20 22:39 51.23403 -0.42902 10737 ft 299 kts 156°
2026-04-20 22:39 51.21439 -0.41515 11031 ft 317 kts 156°
2026-04-20 22:40 51.19376 -0.40041 11324 ft 333 kts 156°
2026-04-20 22:40 51.17216 -0.38491 11624 ft 349 kts 156°
2026-04-20 22:40 51.14948 -0.36863 11910 ft 364 kts 156°
2026-04-20 22:40 51.12602 -0.35176 12279 ft 376 kts 156°
2026-04-20 22:41 51.10197 -0.33443 12810 ft 383 kts 156°
2026-04-20 22:41 51.07743 -0.31700 13415 ft 388 kts 156°
2026-04-20 22:41 51.05253 -0.29989 14044 ft 393 kts 157°
2026-04-20 22:41 51.02727 -0.28284 14591 ft 397 kts 158°
2026-04-20 22:42 51.00161 -0.26563 15127 ft 403 kts 158°
2026-04-20 22:42 50.97562 -0.24819 15650 ft 408 kts 158°
2026-04-20 22:42 50.94938 -0.23055 16196 ft 412 kts 158°
2026-04-20 22:42 50.92281 -0.21265 16719 ft 417 kts 158°
2026-04-20 22:43 50.89596 -0.19454 17269 ft 422 kts 159°
2026-04-20 22:43 50.86878 -0.17622 17774 ft 427 kts 159°
2026-04-20 22:43 50.84118 -0.15763 18211 ft 434 kts 159°
2026-04-20 22:43 50.81330 -0.13886 18721 ft 438 kts 159°
2026-04-20 22:44 50.78511 -0.11991 19191 ft 442 kts 159°
2026-04-20 22:44 50.75673 -0.10085 19674 ft 445 kts 160°
2026-04-20 22:44 50.72816 -0.08171 20177 ft 448 kts 160°
2026-04-20 22:44 50.69930 -0.06239 20645 ft 452 kts 160°
2026-04-20 22:45 50.67031 -0.04301 21121 ft 455 kts 160°
2026-04-20 22:45 50.64105 -0.02349 21575 ft 458 kts 160°
2026-04-20 22:45 50.61169 -0.00391 22127 ft 459 kts 161°
2026-04-20 22:45 50.58212 0.01578 22502 ft 464 kts 161°
2026-04-20 22:46 50.55228 0.03560 22918 ft 467 kts 161°
2026-04-20 22:46 50.52223 0.05555 23365 ft 470 kts 161°
2026-04-20 22:46 50.49199 0.07559 23784 ft 473 kts 161°
2026-04-20 22:46 50.46157 0.09573 24129 ft 476 kts 161°
2026-04-20 22:47 50.43094 0.11598 24449 ft 480 kts 162°
2026-04-20 22:47 50.40008 0.13635 24781 ft 482 kts 161°
2026-04-20 22:47 50.36914 0.15675 25133 ft 484 kts 161°
2026-04-20 22:47 50.33803 0.17723 25432 ft 487 kts 162°
2026-04-20 22:48 50.30665 0.19786 25736 ft 490 kts 162°
2026-04-20 22:48 50.27514 0.21854 26039 ft 493 kts 162°
2026-04-20 22:48 50.24339 0.23935 26333 ft 496 kts 162°
2026-04-20 22:48 50.21179 0.26155 26632 ft 502 kts 156°
2026-04-20 22:49 50.18142 0.28905 26915 ft 507 kts 152°
2026-04-20 22:49 50.15153 0.31841 27259 ft 509 kts 151°
2026-04-20 22:49 50.12179 0.34867 27519 ft 512 kts 150°
2026-04-20 22:49 50.09202 0.37943 27784 ft 515 kts 150°
2026-04-20 22:50 50.06215 0.41037 28053 ft 518 kts 150°
2026-04-20 22:50 50.03205 0.44146 28314 ft 520 kts 150°
2026-04-20 22:50 50.00176 0.47260 28520 ft 524 kts 150°
2026-04-20 22:50 49.97119 0.50386 28705 ft 528 kts 150°
2026-04-20 22:51 49.94050 0.53513 29058 ft 527 kts 150°
2026-04-20 22:51 49.90982 0.56633 29408 ft 527 kts 150°
2026-04-20 22:51 49.87913 0.59747 29748 ft 528 kts 150°
2026-04-20 22:51 49.84839 0.62861 30086 ft 528 kts 150°
2026-04-20 22:52 49.81753 0.65935 30404 ft 527 kts 151°
2026-04-20 22:52 49.78651 0.68957 30717 ft 526 kts 152°
2026-04-20 22:52 49.75547 0.71951 31059 ft 525 kts 152°
2026-04-20 22:52 49.72455 0.74929 31420 ft 522 kts 152°
2026-04-20 22:53 49.69393 0.77879 31838 ft 518 kts 152°
2026-04-20 22:53 49.66338 0.80827 32148 ft 517 kts 152°
2026-04-20 22:53 49.63287 0.83770 32423 ft 517 kts 152°
2026-04-20 22:53 49.60240 0.86709 32705 ft 516 kts 152°
2026-04-20 22:54 49.57198 0.89642 32997 ft 515 kts 152°
2026-04-20 22:54 49.54163 0.92564 33222 ft 516 kts 152°
2026-04-20 22:54 49.51117 0.95491 33444 ft 515 kts 151°
2026-04-20 22:54 49.48087 0.98401 33859 ft 511 kts 151°
2026-04-20 22:55 49.45076 1.01289 34197 ft 509 kts 151°
2026-04-20 22:55 49.42072 1.04165 34401 ft 509 kts 151°
2026-04-20 22:55 49.39107 1.06997 34627 ft 508 kts 151°
2026-04-20 22:55 49.36069 1.09895 34837 ft 507 kts 151°
2026-04-20 22:56 49.33111 1.12714 35039 ft 507 kts 151°
2026-04-20 22:56 49.30118 1.15560 35242 ft 506 kts 151°
2026-04-20 22:56 49.27127 1.18402 35481 ft 504 kts 151°
2026-04-20 22:56 49.24153 1.21223 35706 ft 503 kts 151°
2026-04-20 22:57 49.21176 1.24043 35886 ft 503 kts 151°
2026-04-20 22:57 49.18154 1.26901 36050 ft 503 kts 151°
2026-04-20 22:57 49.15217 1.29675 36225 ft 503 kts 151°
2026-04-20 22:57 49.12239 1.32484 36396 ft 503 kts 151°
2026-04-20 22:58 49.09257 1.35292 36502 ft 504 kts 151°
2026-04-20 22:58 49.06271 1.38100 36629 ft 505 kts 151°
2026-04-20 22:58 49.03244 1.40943 36790 ft 504 kts 151°
2026-04-20 22:58 49.00297 1.43707 36967 ft 504 kts 151°
2026-04-20 22:59 48.97308 1.46508 37123 ft 504 kts 151°
2026-04-20 22:59 48.94322 1.49300 37203 ft 505 kts 151°
2026-04-20 22:59 48.88323 1.54897 37198 ft 505 kts 151°
2026-04-20 23:00 48.82341 1.60465 37199 ft 504 kts 151°
2026-04-20 23:00 48.76364 1.66012 37192 ft 504 kts 151°
2026-04-20 23:01 48.70376 1.71552 37185 ft 504 kts 151°
2026-04-20 23:01 48.64396 1.77070 37186 ft 504 kts 152°
2026-04-20 23:02 48.58405 1.82581 37173 ft 504 kts 152°
2026-04-20 23:02 48.52406 1.88087 37172 ft 504 kts 152°
2026-04-20 23:03 48.46409 1.93574 37162 ft 504 kts 152°
2026-04-20 23:03 48.40407 1.99051 37150 ft 504 kts 152°
2026-04-20 23:04 48.34403 2.04513 37157 ft 505 kts 152°
2026-04-20 23:04 48.28192 2.09334 37154 ft 498 kts 165°
2026-04-20 23:05 48.21499 2.11562 37154 ft 491 kts 175°
2026-04-20 23:05 48.14732 2.13001 37151 ft 490 kts 179°
2026-04-20 23:06 48.07955 2.13569 37153 ft 487 kts 183°
2026-04-20 23:06 48.01175 2.13942 37155 ft 488 kts 183°
2026-04-20 23:07 47.94396 2.14312 37156 ft 487 kts 183°
2026-04-20 23:07 47.87623 2.14700 37157 ft 487 kts 183°
2026-04-20 23:08 47.80848 2.15096 37129 ft 487 kts 183°
2026-04-20 23:08 47.74076 2.15493 37135 ft 486 kts 183°
2026-04-20 23:09 47.67319 2.15888 37124 ft 485 kts 183°
2026-04-20 23:09 47.60571 2.16279 37116 ft 485 kts 183°
2026-04-20 23:10 47.53821 2.16669 37114 ft 485 kts 182°
2026-04-20 23:10 47.47089 2.17058 37114 ft 484 kts 183°
2026-04-20 23:11 47.40355 2.17446 37123 ft 484 kts 183°
2026-04-20 23:11 47.33630 2.17832 37108 ft 484 kts 182°
2026-04-20 23:12 47.26913 2.18218 37099 ft 483 kts 183°
2026-04-20 23:12 47.20202 2.18601 37105 ft 482 kts 183°
2026-04-20 23:13 47.13493 2.18983 37090 ft 482 kts 183°
2026-04-20 23:13 47.07935 2.20124 37098 ft 491 kts 169°
2026-04-20 23:14 47.01459 2.23470 37098 ft 495 kts 163°
2026-04-20 23:14 46.95051 2.27247 37091 ft 497 kts 162°
2026-04-20 23:15 46.88653 2.31052 37094 ft 496 kts 162°
2026-04-20 23:15 46.82415 2.35419 37094 ft 501 kts 152°
2026-04-20 23:16 46.76512 2.40851 37086 ft 503 kts 150°
2026-04-20 23:16 46.70664 2.46454 37086 ft 503 kts 150°
2026-04-20 23:17 46.64813 2.52056 37081 ft 503 kts 150°
2026-04-20 23:17 46.58951 2.57623 37079 ft 503 kts 150°
2026-04-20 23:18 46.53080 2.63169 37053 ft 503 kts 150°
2026-04-20 23:18 46.47221 2.68688 37071 ft 502 kts 150°
2026-04-20 23:19 46.41399 2.74157 37061 ft 502 kts 150°
2026-04-20 23:19 46.35540 2.79646 37076 ft 502 kts 150°
2026-04-20 23:20 46.29642 2.85159 37068 ft 501 kts 150°
2026-04-20 23:20 46.23778 2.90627 37067 ft 501 kts 150°
2026-04-20 23:21 46.17924 2.96071 37061 ft 501 kts 150°
2026-04-20 23:21 46.12102 3.01471 37038 ft 501 kts 150°
2026-04-20 23:22 46.06242 3.06893 37054 ft 500 kts 150°
2026-04-20 23:22 46.00398 3.12286 37052 ft 499 kts 150°
2026-04-20 23:23 45.94243 3.16646 37058 ft 489 kts 168°
2026-04-20 23:23 45.87620 3.18002 37047 ft 477 kts 184°
2026-04-20 23:24 45.80989 3.18010 37049 ft 476 kts 186°
2026-04-20 23:24 45.74374 3.17828 37049 ft 476 kts 186°
2026-04-20 23:25 45.67753 3.17680 37047 ft 476 kts 186°
2026-04-20 23:25 45.61139 3.17577 37048 ft 476 kts 186°
2026-04-20 23:26 45.54508 3.17491 37044 ft 476 kts 186°
2026-04-20 23:26 45.47879 3.17406 37045 ft 476 kts 186°
2026-04-20 23:27 45.41247 3.17319 37048 ft 476 kts 186°
2026-04-20 23:27 45.34616 3.17232 37048 ft 476 kts 186°
2026-04-20 23:28 45.27991 3.17141 37046 ft 476 kts 186°
2026-04-20 23:28 45.21372 3.17053 37047 ft 476 kts 186°
2026-04-20 23:29 45.14746 3.16969 37019 ft 476 kts 186°
2026-04-20 23:29 45.08133 3.16883 37044 ft 475 kts 186°
2026-04-20 23:30 45.01516 3.16795 37042 ft 475 kts 186°
2026-04-20 23:30 44.94895 3.16708 37020 ft 475 kts 186°
2026-04-20 23:31 44.88289 3.16622 37037 ft 475 kts 186°
2026-04-20 23:31 44.81676 3.16535 37040 ft 475 kts 186°
2026-04-20 23:32 44.75065 3.16447 37034 ft 475 kts 186°
2026-04-20 23:32 44.68444 3.16362 37027 ft 475 kts 186°
2026-04-20 23:33 44.61832 3.16277 37024 ft 475 kts 186°
2026-04-20 23:33 44.55170 3.16277 37014 ft 476 kts 184°
2026-04-20 23:34 44.48589 3.16412 37016 ft 477 kts 184°
2026-04-20 23:34 44.41960 3.16548 37016 ft 476 kts 184°
2026-04-20 23:35 44.32023 3.16719 37000 ft 476 kts 184°
2026-04-20 23:36 44.25401 3.16821 36998 ft 476 kts 184°
2026-04-20 23:36 44.18783 3.16922 37000 ft 475 kts 184°
2026-04-20 23:37 44.12172 3.17023 36996 ft 475 kts 184°
2026-04-20 23:37 44.05601 3.16700 36995 ft 471 kts 189°
2026-04-20 23:38 43.99069 3.15965 36993 ft 471 kts 190°
2026-04-20 23:38 43.92553 3.15172 36990 ft 470 kts 190°
2026-04-20 23:39 43.86043 3.14384 36985 ft 469 kts 190°
2026-04-20 23:39 43.79530 3.13604 36987 ft 470 kts 189°
2026-04-20 23:40 43.73019 3.12835 36982 ft 470 kts 189°
2026-04-20 23:40 43.66506 3.12062 36979 ft 470 kts 189°
2026-04-20 23:41 43.59992 3.11294 36971 ft 470 kts 189°
2026-04-20 23:41 43.53483 3.10528 36966 ft 469 kts 189°
2026-04-20 23:42 43.46979 3.09764 36966 ft 469 kts 189°
2026-04-20 23:42 43.40470 3.09002 36964 ft 469 kts 189°
2026-04-20 23:43 43.33974 3.08242 36962 ft 469 kts 189°
2026-04-20 23:43 43.27473 3.07483 36960 ft 469 kts 189°
2026-04-20 23:44 43.20974 3.06726 36957 ft 469 kts 189°
2026-04-20 23:44 43.14513 3.05974 36953 ft 468 kts 189°
2026-04-20 23:45 43.07981 3.05217 36941 ft 468 kts 189°
2026-04-20 23:45 43.01484 3.04465 36946 ft 468 kts 189°
2026-04-20 23:46 42.94996 3.03716 36944 ft 468 kts 189°
2026-04-20 23:46 42.88514 3.02969 36935 ft 467 kts 189°
2026-04-20 23:47 42.82039 3.02224 36937 ft 467 kts 189°
2026-04-20 23:47 42.75570 3.01481 36935 ft 467 kts 189°
2026-04-20 23:48 42.69136 3.00744 36936 ft 467 kts 189°
2026-04-20 23:48 42.62664 3.00004 36940 ft 467 kts 189°
2026-04-20 23:49 42.56191 2.99266 36928 ft 467 kts 189°
2026-04-20 23:49 42.49721 2.98542 36932 ft 467 kts 188°
2026-04-20 23:50 42.43186 2.98705 36935 ft 471 kts 182°
2026-04-20 23:50 42.36632 2.99219 36918 ft 472 kts 181°
2026-04-20 23:51 42.30080 2.99785 36940 ft 472 kts 181°
2026-04-20 23:51 42.23518 3.00337 36938 ft 472 kts 181°
2026-04-20 23:52 42.16959 3.00875 36938 ft 472 kts 181°
2026-04-20 23:52 42.10407 3.01406 36939 ft 472 kts 181°
2026-04-20 23:53 42.03856 3.01935 36938 ft 471 kts 181°
2026-04-20 23:53 41.97311 3.02464 36941 ft 471 kts 181°
2026-04-20 23:54 41.90767 3.02992 36939 ft 471 kts 181°
2026-04-20 23:54 41.84225 3.03518 36940 ft 471 kts 181°
2026-04-20 23:55 41.77682 3.04044 36945 ft 471 kts 181°
2026-04-20 23:55 41.71151 3.04568 36944 ft 471 kts 181°
2026-04-20 23:56 41.64609 3.05091 36947 ft 471 kts 181°
2026-04-20 23:56 41.59173 3.05525 36947 ft 471 kts 181°
2026-04-20 23:57 41.52615 3.06047 36954 ft 473 kts 181°
2026-04-20 23:57 41.46043 3.06569 36953 ft 472 kts 181°
2026-04-20 23:58 41.38424 3.07175 36954 ft 472 kts 181°
2026-04-20 23:58 41.32927 3.07610 36954 ft 472 kts 181°
2026-04-20 23:59 41.26365 3.08129 36957 ft 472 kts 181°
2026-04-20 23:59 41.19810 3.08646 36960 ft 472 kts 181°
2026-04-21 00:00 41.13257 3.09162 36963 ft 472 kts 181°
2026-04-21 00:00 41.06741 3.09674 36959 ft 472 kts 181°
2026-04-21 00:01 41.00192 3.10188 36969 ft 471 kts 181°
2026-04-21 00:01 40.93650 3.10701 36968 ft 471 kts 181°
2026-04-21 00:02 40.87115 3.11211 36967 ft 471 kts 181°
2026-04-21 00:02 40.80579 3.11720 36968 ft 471 kts 181°
2026-04-21 00:03 40.74042 3.12229 36963 ft 470 kts 181°
2026-04-21 00:03 40.67503 3.12737 36966 ft 471 kts 181°
2026-04-21 00:04 40.60970 3.13243 36969 ft 471 kts 181°
2026-04-21 00:04 40.54433 3.13749 36968 ft 471 kts 181°
2026-04-21 00:05 40.47908 3.13967 36964 ft 468 kts 186°
2026-04-21 00:05 40.41408 3.13727 36970 ft 467 kts 186°
2026-04-21 00:06 40.34925 3.13418 36968 ft 466 kts 187°
2026-04-21 00:06 40.28454 3.13108 36967 ft 466 kts 187°
2026-04-21 00:07 40.21971 3.12806 36968 ft 466 kts 186°
2026-04-21 00:07 40.15498 3.12511 36965 ft 465 kts 187°
2026-04-21 00:08 40.09027 3.12217 36965 ft 465 kts 187°
2026-04-21 00:08 40.02563 3.11923 36967 ft 465 kts 187°
2026-04-21 00:09 39.96097 3.11630 36964 ft 464 kts 187°
2026-04-21 00:09 39.89647 3.11390 36965 ft 464 kts 185°
2026-04-21 00:10 39.83178 3.11535 36966 ft 465 kts 183°
2026-04-21 00:10 39.76700 3.11765 36969 ft 465 kts 183°
2026-04-21 00:11 39.70244 3.11942 36969 ft 463 kts 184°
2026-04-21 00:11 39.63839 3.12079 36968 ft 463 kts 184°
2026-04-21 00:12 39.57399 3.12206 36970 ft 463 kts 184°
2026-04-21 00:12 39.50959 3.12335 36965 ft 463 kts 184°
2026-04-21 00:13 39.44534 3.12466 36969 ft 462 kts 184°
2026-04-21 00:13 39.38105 3.12596 36967 ft 462 kts 184°
2026-04-21 00:14 39.31681 3.12727 36965 ft 462 kts 184°
2026-04-21 00:14 39.25268 3.12857 36968 ft 460 kts 184°
2026-04-21 00:15 39.18863 3.12987 36962 ft 460 kts 184°
2026-04-21 00:15 39.12469 3.13116 36962 ft 460 kts 184°
2026-04-21 00:16 39.06071 3.13252 36954 ft 460 kts 184°
2026-04-21 00:16 38.99669 3.13384 36972 ft 459 kts 184°
2026-04-21 00:17 38.93279 3.13519 36967 ft 459 kts 184°
2026-04-21 00:17 38.86880 3.13645 36972 ft 459 kts 184°
2026-04-21 00:18 38.80492 3.13769 36959 ft 459 kts 184°
2026-04-21 00:18 38.74102 3.13896 36953 ft 459 kts 184°
2026-04-21 00:19 38.67717 3.14024 36954 ft 459 kts 184°
2026-04-21 00:19 38.61330 3.14152 36943 ft 459 kts 183°
2026-04-21 00:20 38.54939 3.14285 36958 ft 459 kts 183°
2026-04-21 00:20 38.48553 3.14413 36958 ft 459 kts 183°
2026-04-21 00:21 38.42168 3.14539 36958 ft 459 kts 183°
2026-04-21 00:21 38.35780 3.14667 36957 ft 459 kts 183°
2026-04-21 00:22 38.29388 3.15057 36957 ft 464 kts 175°
2026-04-21 00:22 38.23066 3.16840 36952 ft 467 kts 170°
2026-04-21 00:23 38.16770 3.18949 36951 ft 468 kts 169°
2026-04-21 00:23 38.10477 3.21068 36952 ft 467 kts 171°
2026-04-21 00:24 38.04147 3.22866 36949 ft 466 kts 172°
2026-04-21 00:24 37.97801 3.24567 36950 ft 466 kts 172°
2026-04-21 00:25 37.91461 3.26301 36947 ft 466 kts 172°
2026-04-21 00:25 37.85126 3.28063 36947 ft 466 kts 172°
2026-04-21 00:26 37.78803 3.29827 36944 ft 465 kts 172°
2026-04-21 00:26 37.72472 3.31590 36944 ft 466 kts 172°
2026-04-21 00:27 37.66148 3.33346 36931 ft 465 kts 172°
2026-04-21 00:27 37.59868 3.35087 36941 ft 465 kts 172°
2026-04-21 00:28 37.53552 3.36834 36940 ft 465 kts 172°
2026-04-21 00:28 37.47235 3.38579 36936 ft 465 kts 172°
2026-04-21 00:29 37.40915 3.40321 36932 ft 465 kts 172°
2026-04-21 00:29 37.34597 3.42060 36934 ft 465 kts 172°
2026-04-21 00:30 37.28277 3.43796 36937 ft 465 kts 172°
2026-04-21 00:30 37.21957 3.45530 36933 ft 465 kts 172°
2026-04-21 00:31 37.15641 3.47259 36928 ft 464 kts 171°
2026-04-21 00:31 37.09334 3.48983 36930 ft 464 kts 171°
2026-04-21 00:32 37.03023 3.50706 36928 ft 464 kts 171°
2026-04-21 00:32 36.96714 3.52424 36930 ft 464 kts 171°
2026-04-21 00:33 36.90402 3.54141 36931 ft 464 kts 171°
2026-04-21 00:33 36.84099 3.55853 36934 ft 463 kts 171°
2026-04-21 00:34 36.77801 3.57544 36940 ft 463 kts 172°
2026-04-21 00:34 36.71456 3.58729 36940 ft 461 kts 176°
2026-04-21 00:35 36.65095 3.59693 36946 ft 461 kts 176°
2026-04-21 00:35 36.58742 3.60717 36956 ft 461 kts 175°
2026-04-21 00:36 36.52427 3.61797 36958 ft 461 kts 175°
2026-04-21 00:36 36.46027 3.62909 36969 ft 461 kts 175°
2026-04-21 00:37 36.39674 3.64012 36965 ft 461 kts 175°
2026-04-21 00:37 36.33361 3.65103 36974 ft 461 kts 175°
2026-04-21 00:38 36.26999 3.66199 36980 ft 461 kts 175°
2026-04-21 00:38 36.20645 3.67291 36979 ft 461 kts 175°
2026-04-21 00:39 36.14287 3.68382 36981 ft 461 kts 175°
2026-04-21 00:39 36.07941 3.69470 36975 ft 460 kts 175°
2026-04-21 00:40 36.01597 3.70556 36985 ft 460 kts 175°
2026-04-21 00:40 35.95251 3.71640 36975 ft 460 kts 175°
2026-04-21 00:41 35.88905 3.72722 36976 ft 460 kts 175°
2026-04-21 00:41 35.82564 3.73802 36976 ft 460 kts 175°
2026-04-21 00:42 35.76216 3.74882 36973 ft 460 kts 175°
2026-04-21 00:42 35.70895 3.75785 36974 ft 460 kts 175°
2026-04-21 00:43 35.64592 3.76854 36970 ft 460 kts 175°
2026-04-21 00:43 35.58245 3.77929 36971 ft 460 kts 175°
2026-04-21 00:44 35.51897 3.79003 36967 ft 460 kts 175°
2026-04-21 00:44 35.45554 3.80074 36971 ft 460 kts 175°
2026-04-21 00:45 35.36015 3.81681 36966 ft 462 kts 174°
2026-04-21 00:45 35.29591 3.82761 36962 ft 463 kts 174°
2026-04-21 00:46 35.23208 3.83833 36970 ft 463 kts 174°
2026-04-21 00:46 35.16869 3.84896 36976 ft 463 kts 174°
2026-04-21 00:47 35.10445 3.85972 36976 ft 463 kts 174°
2026-04-21 00:47 35.04067 3.87038 36985 ft 463 kts 174°
2026-04-21 00:48 34.97690 3.88102 36990 ft 463 kts 174°
2026-04-21 00:48 34.91354 3.89158 36987 ft 462 kts 174°
2026-04-21 00:49 34.84943 3.90224 36996 ft 462 kts 174°
2026-04-21 00:49 34.78571 3.91282 36992 ft 462 kts 174°
2026-04-21 00:50 34.72208 3.92337 36998 ft 462 kts 174°
2026-04-21 00:50 34.65879 3.93385 37000 ft 462 kts 174°
2026-04-21 00:51 34.59468 3.94445 37001 ft 462 kts 174°
2026-04-21 00:51 34.53102 3.95495 37000 ft 462 kts 174°
2026-04-21 00:52 34.46781 3.96537 37000 ft 462 kts 174°
2026-04-21 00:52 34.40374 3.97591 36978 ft 462 kts 175°
2026-04-21 00:53 34.34037 3.98632 36986 ft 463 kts 175°
2026-04-21 00:53 34.27609 3.99686 36985 ft 463 kts 175°
2026-04-21 00:54 34.21261 4.00726 36983 ft 463 kts 175°
2026-04-21 00:54 34.14871 4.01771 36991 ft 464 kts 175°
2026-04-21 00:55 34.08458 4.02272 36982 ft 460 kts 187°
2026-04-21 00:55 34.02100 4.01528 36975 ft 459 kts 189°
2026-04-21 00:56 33.95759 4.00576 36986 ft 459 kts 190°
2026-04-21 00:56 33.89422 3.99606 36984 ft 459 kts 189°
2026-04-21 00:57 33.83083 3.98659 36972 ft 459 kts 190°
2026-04-21 00:57 33.76735 3.97725 36987 ft 459 kts 189°
2026-04-21 00:58 33.70398 3.96797 36989 ft 459 kts 189°
2026-04-21 00:58 33.64048 3.95867 36988 ft 459 kts 190°
2026-04-21 00:59 33.57701 3.94940 36982 ft 459 kts 190°
2026-04-21 00:59 33.51358 3.94013 36985 ft 459 kts 190°
2026-04-21 01:00 33.45017 3.93089 36988 ft 459 kts 190°
2026-04-21 01:00 33.38677 3.92166 36988 ft 459 kts 190°
2026-04-21 01:01 33.32337 3.91243 36983 ft 459 kts 190°
2026-04-21 01:01 33.26003 3.90323 36990 ft 459 kts 190°
2026-04-21 01:02 33.19659 3.89403 36995 ft 459 kts 190°
2026-04-21 01:02 33.13313 3.88484 36990 ft 459 kts 190°
2026-04-21 01:03 33.06976 3.87568 36989 ft 459 kts 190°
2026-04-21 01:03 33.00626 3.86651 36995 ft 459 kts 190°
2026-04-21 01:04 32.94283 3.85731 36989 ft 459 kts 190°
2026-04-21 01:04 32.87938 3.84809 36988 ft 459 kts 190°
2026-04-21 01:05 32.81631 3.83896 36982 ft 459 kts 190°
2026-04-21 01:05 32.75286 3.82979 36984 ft 459 kts 190°
2026-04-21 01:06 32.68937 3.82062 36987 ft 460 kts 190°
2026-04-21 01:06 32.62585 3.81146 36988 ft 460 kts 190°
2026-04-21 01:07 32.56231 3.80232 36987 ft 460 kts 190°
2026-04-21 01:07 32.49879 3.79319 36986 ft 460 kts 191°
2026-04-21 01:08 32.43516 3.78406 36981 ft 460 kts 191°
2026-04-21 01:08 32.37085 3.78295 36985 ft 467 kts 177°
2026-04-21 01:09 32.30624 3.79333 36981 ft 469 kts 175°
2026-04-21 01:09 32.24169 3.80556 36983 ft 471 kts 175°
2026-04-21 01:10 32.17702 3.81787 36975 ft 470 kts 175°
2026-04-21 01:10 32.11247 3.82989 36970 ft 470 kts 175°
2026-04-21 01:11 32.04790 3.84177 36970 ft 470 kts 175°
2026-04-21 01:11 31.98286 3.85370 36970 ft 470 kts 176°
2026-04-21 01:12 31.91854 3.86548 36972 ft 471 kts 176°
2026-04-21 01:12 31.85377 3.87735 36966 ft 471 kts 176°
2026-04-21 01:13 31.78902 3.88919 36969 ft 471 kts 176°
2026-04-21 01:13 31.72419 3.90103 36955 ft 471 kts 176°
2026-04-21 01:14 31.65933 3.91284 36965 ft 473 kts 176°
2026-04-21 01:14 31.59430 3.92468 36959 ft 473 kts 176°
2026-04-21 01:15 31.52925 3.93652 36968 ft 473 kts 176°
2026-04-21 01:15 31.46428 3.94832 36962 ft 473 kts 176°
2026-04-21 01:16 31.39919 3.96013 36957 ft 474 kts 177°
2026-04-21 01:16 31.33397 3.97193 36954 ft 474 kts 177°
2026-04-21 01:17 31.26881 3.98371 36940 ft 474 kts 177°
2026-04-21 01:17 31.20360 3.99549 36951 ft 474 kts 177°
2026-04-21 01:18 31.13834 4.00726 36948 ft 474 kts 178°
2026-04-21 01:18 31.07306 4.01901 36944 ft 475 kts 178°
2026-04-21 01:19 31.00781 4.03074 36941 ft 475 kts 178°
2026-04-21 01:19 30.94246 4.04248 36942 ft 475 kts 178°
2026-04-21 01:20 30.87722 4.05418 36923 ft 474 kts 178°
2026-04-21 01:20 30.81193 4.06588 36942 ft 474 kts 178°
2026-04-21 01:21 30.74721 4.07745 36939 ft 474 kts 178°
2026-04-21 01:21 30.68205 4.08908 36943 ft 474 kts 178°
2026-04-21 01:22 30.61694 4.10069 36931 ft 474 kts 178°
2026-04-21 01:22 30.55171 4.11231 36935 ft 474 kts 178°
2026-04-21 01:23 30.48652 4.12390 36930 ft 474 kts 178°
2026-04-21 01:23 30.42135 4.13547 36928 ft 474 kts 178°
2026-04-21 01:24 30.35617 4.14703 36928 ft 474 kts 178°
2026-04-21 01:24 30.29100 4.15859 36918 ft 473 kts 178°
2026-04-21 01:25 30.23658 4.16822 36921 ft 472 kts 178°
2026-04-21 01:25 30.17206 4.17961 36917 ft 472 kts 178°
2026-04-21 01:26 30.10668 4.19114 36916 ft 472 kts 178°
2026-04-21 01:26 30.04219 4.20251 36891 ft 471 kts 178°
2026-04-21 01:27 29.97703 4.21399 36903 ft 470 kts 178°
2026-04-21 01:27 29.91253 4.22533 36902 ft 469 kts 178°
2026-04-21 01:28 29.84790 4.23666 36903 ft 469 kts 178°
2026-04-21 01:28 29.78341 4.24796 36904 ft 469 kts 178°
2026-04-21 01:29 29.71885 4.25926 36894 ft 468 kts 178°
2026-04-21 01:29 29.65504 4.27055 36895 ft 467 kts 178°
2026-04-21 01:30 29.59087 4.28203 36890 ft 467 kts 178°
2026-04-21 01:30 29.52623 4.29357 36884 ft 467 kts 178°
2026-04-21 01:31 29.46206 4.30499 36862 ft 467 kts 178°
2026-04-21 01:31 29.39836 4.31630 36878 ft 466 kts 178°
2026-04-21 01:32 29.33428 4.32764 36874 ft 466 kts 178°
2026-04-21 01:32 29.27014 4.33901 36875 ft 467 kts 178°
2026-04-21 01:33 29.20600 4.35038 36870 ft 466 kts 178°
2026-04-21 01:33 29.14200 4.36168 36866 ft 465 kts 178°
2026-04-21 01:34 29.07775 4.37302 36860 ft 464 kts 178°
2026-04-21 01:34 29.01431 4.38419 36859 ft 464 kts 178°
2026-04-21 01:35 28.95052 4.39541 36858 ft 464 kts 178°
2026-04-21 01:35 28.88674 4.40662 36859 ft 463 kts 178°
2026-04-21 01:36 28.82317 4.41780 36861 ft 461 kts 178°
2026-04-21 01:36 28.75987 4.42890 36865 ft 460 kts 178°
2026-04-21 01:37 28.69656 4.43998 36857 ft 460 kts 178°
2026-04-21 01:37 28.63326 4.45104 36859 ft 460 kts 178°
2026-04-21 01:38 28.56998 4.46210 36842 ft 460 kts 178°
2026-04-21 01:38 28.50676 4.47314 36851 ft 459 kts 178°
2026-04-21 01:39 28.44355 4.48431 36842 ft 460 kts 178°
2026-04-21 01:39 28.38041 4.49569 36842 ft 460 kts 178°
2026-04-21 01:40 28.31729 4.50705 36839 ft 459 kts 178°
2026-04-21 01:40 28.25412 4.51835 36838 ft 459 kts 179°
2026-04-21 01:41 28.19120 4.52961 36837 ft 457 kts 179°
2026-04-21 01:41 28.12834 4.54082 36837 ft 457 kts 179°
2026-04-21 01:42 28.06552 4.55201 36828 ft 457 kts 179°
2026-04-21 01:42 28.00262 4.56320 36828 ft 457 kts 179°
2026-04-21 01:43 27.93982 4.57438 36818 ft 457 kts 179°
2026-04-21 01:43 27.87701 4.58553 36825 ft 457 kts 179°
2026-04-21 01:44 27.81421 4.59666 36825 ft 457 kts 179°
2026-04-21 01:44 27.75143 4.60778 36817 ft 457 kts 179°
2026-04-21 01:45 27.68860 4.61889 36816 ft 457 kts 180°
2026-04-21 01:45 27.62573 4.63001 36809 ft 457 kts 179°
2026-04-21 01:46 27.56293 4.64110 36814 ft 457 kts 180°
2026-04-21 01:46 27.50007 4.65219 36814 ft 457 kts 180°
2026-04-21 01:47 27.43720 4.66326 36811 ft 457 kts 180°
2026-04-21 01:47 27.37440 4.67431 36813 ft 457 kts 180°
2026-04-21 01:48 27.31165 4.68535 36800 ft 456 kts 180°
2026-04-21 01:48 27.24903 4.69634 36811 ft 456 kts 180°
2026-04-21 01:49 27.18636 4.70732 36813 ft 456 kts 180°
2026-04-21 01:49 27.12368 4.71829 36806 ft 456 kts 180°
2026-04-21 01:50 27.06104 4.72925 36806 ft 456 kts 180°
2026-04-21 01:50 26.99827 4.74021 36808 ft 456 kts 180°
2026-04-21 01:51 26.93549 4.75117 36807 ft 456 kts 180°
2026-04-21 01:51 26.87281 4.76209 36807 ft 456 kts 180°
2026-04-21 01:52 26.77871 4.77848 36776 ft 456 kts 180°
2026-04-21 01:53 26.71583 4.78941 36806 ft 457 kts 180°
2026-04-21 01:53 26.65299 4.80032 36809 ft 457 kts 180°
2026-04-21 01:54 26.59010 4.81124 36812 ft 457 kts 180°
2026-04-21 01:54 26.52725 4.82213 36810 ft 457 kts 180°
2026-04-21 01:55 26.46441 4.83300 36802 ft 457 kts 180°
2026-04-21 01:55 26.40161 4.84387 36823 ft 456 kts 180°
2026-04-21 01:56 26.33900 4.85468 36819 ft 455 kts 180°
2026-04-21 01:56 26.27636 4.86548 36827 ft 456 kts 180°
2026-04-21 01:57 26.21371 4.87627 36826 ft 455 kts 180°
2026-04-21 01:57 26.15106 4.88704 36836 ft 455 kts 179°
2026-04-21 01:58 26.08841 4.89780 36849 ft 455 kts 180°
2026-04-21 01:58 26.02585 4.90857 36855 ft 455 kts 180°
2026-04-21 01:59 25.96329 4.91931 36854 ft 454 kts 180°
2026-04-21 01:59 25.90083 4.93002 36867 ft 454 kts 180°
2026-04-21 02:00 25.83834 4.94071 36854 ft 455 kts 180°
2026-04-21 02:00 25.77573 4.95141 36863 ft 455 kts 180°
2026-04-21 02:01 25.71306 4.96212 36870 ft 456 kts 180°
2026-04-21 02:01 25.65038 4.97281 36874 ft 456 kts 180°
2026-04-21 02:02 25.58776 4.98349 36875 ft 456 kts 180°
2026-04-21 02:02 25.52508 4.99417 36866 ft 455 kts 180°
2026-04-21 02:03 25.46259 5.00482 36870 ft 454 kts 180°
2026-04-21 02:03 25.40064 5.01534 36865 ft 453 kts 180°
2026-04-21 02:04 25.33782 5.02599 36864 ft 454 kts 180°
2026-04-21 02:04 25.27590 5.03649 36859 ft 454 kts 180°
2026-04-21 02:05 25.21345 5.04706 36856 ft 454 kts 180°
2026-04-21 02:05 25.15111 5.05762 36853 ft 453 kts 180°
2026-04-21 02:06 25.09885 5.06646 36855 ft 453 kts 180°
2026-04-21 02:06 25.03644 5.07700 36854 ft 454 kts 180°
2026-04-21 02:07 24.97448 5.08744 36851 ft 453 kts 180°
2026-04-21 02:07 24.91208 5.09796 36847 ft 454 kts 180°
2026-04-21 02:08 24.84981 5.10847 36861 ft 452 kts 180°
2026-04-21 02:08 24.78771 5.11892 36862 ft 452 kts 180°
2026-04-21 02:09 24.72516 5.12942 36862 ft 452 kts 180°
2026-04-21 02:09 24.66308 5.13983 36864 ft 451 kts 180°
2026-04-21 02:10 24.60141 5.15018 36863 ft 451 kts 180°
2026-04-21 02:10 24.53931 5.16058 36870 ft 451 kts 180°
2026-04-21 02:11 24.47729 5.17096 36867 ft 450 kts 180°
2026-04-21 02:11 24.41534 5.18132 36885 ft 451 kts 180°
2026-04-21 02:12 24.35324 5.19168 36888 ft 451 kts 180°
2026-04-21 02:12 24.29116 5.20205 36868 ft 451 kts 180°
2026-04-21 02:13 24.22922 5.21239 36890 ft 449 kts 181°
2026-04-21 02:13 24.16741 5.22269 36889 ft 449 kts 181°
2026-04-21 02:14 24.10561 5.23296 36886 ft 449 kts 181°
2026-04-21 02:14 24.04384 5.24322 36887 ft 449 kts 181°
2026-04-21 02:15 23.98209 5.25348 36888 ft 449 kts 181°
2026-04-21 02:15 23.92040 5.26372 36899 ft 447 kts 180°
2026-04-21 02:16 23.85900 5.27391 36900 ft 446 kts 180°
2026-04-21 02:16 23.79760 5.28407 36897 ft 446 kts 180°
2026-04-21 02:17 23.73618 5.29421 36896 ft 446 kts 180°
2026-04-21 02:17 23.67480 5.30436 36892 ft 446 kts 180°
2026-04-21 02:18 23.61338 5.31450 36911 ft 446 kts 180°
2026-04-21 02:18 23.55204 5.32462 36901 ft 446 kts 180°
2026-04-21 02:19 23.49071 5.33473 36928 ft 446 kts 180°
2026-04-21 02:19 23.42931 5.34483 36943 ft 447 kts 180°
2026-04-21 02:20 23.36781 5.35494 36958 ft 447 kts 180°
2026-04-21 02:20 23.30637 5.36504 36958 ft 447 kts 181°
2026-04-21 02:21 23.24473 5.37516 36963 ft 448 kts 181°
2026-04-21 02:21 23.18306 5.38527 36972 ft 448 kts 181°
2026-04-21 02:22 23.12180 5.39535 36993 ft 448 kts 181°
2026-04-21 02:22 23.05980 5.40550 37024 ft 448 kts 181°
2026-04-21 02:23 22.99816 5.41556 37040 ft 448 kts 181°
2026-04-21 02:23 22.93626 5.42564 37083 ft 451 kts 181°
2026-04-21 02:24 22.87456 5.43571 37104 ft 451 kts 181°
2026-04-21 02:24 22.81208 5.44750 37103 ft 460 kts 174°
2026-04-21 02:25 22.75096 5.47081 37103 ft 469 kts 168°
2026-04-21 02:25 22.69029 5.49728 37081 ft 470 kts 167°
2026-04-21 02:26 22.62962 5.52416 37048 ft 473 kts 168°
2026-04-21 02:26 22.56854 5.55099 37001 ft 474 kts 168°
2026-04-21 02:27 22.50739 5.57768 36964 ft 474 kts 168°
2026-04-21 02:27 22.44626 5.60428 36931 ft 473 kts 168°
2026-04-21 02:28 22.38516 5.63084 36930 ft 473 kts 168°
2026-04-21 02:28 22.32447 5.65721 36925 ft 473 kts 168°
2026-04-21 02:29 22.26296 5.68390 36926 ft 473 kts 168°
2026-04-21 02:29 22.20223 5.71022 36919 ft 473 kts 168°
2026-04-21 02:30 22.14111 5.73669 36917 ft 474 kts 168°
2026-04-21 02:30 22.08003 5.76313 36913 ft 473 kts 168°
2026-04-21 02:31 22.01879 5.78960 36883 ft 473 kts 168°
2026-04-21 02:31 21.95761 5.81601 36904 ft 474 kts 168°
2026-04-21 02:32 21.89630 5.84247 36899 ft 475 kts 168°
2026-04-21 02:32 21.83499 5.86890 36911 ft 475 kts 168°
2026-04-21 02:33 21.77366 5.89532 36905 ft 475 kts 168°
2026-04-21 02:33 21.71234 5.92171 36899 ft 474 kts 168°
2026-04-21 02:34 21.65105 5.94806 36906 ft 475 kts 168°
2026-04-21 02:34 21.58961 5.97445 36907 ft 475 kts 168°
2026-04-21 02:35 21.52818 6.00081 36903 ft 475 kts 168°
2026-04-21 02:35 21.46678 6.02713 36901 ft 475 kts 168°
2026-04-21 02:36 21.40529 6.05348 36901 ft 475 kts 168°
2026-04-21 02:36 21.34387 6.07976 36898 ft 475 kts 168°
2026-04-21 02:37 21.28247 6.10602 36899 ft 475 kts 168°
2026-04-21 02:37 21.22109 6.13225 36899 ft 474 kts 168°
2026-04-21 02:38 21.15977 6.15842 36894 ft 474 kts 168°
2026-04-21 02:38 21.09844 6.18457 36894 ft 475 kts 168°
2026-04-21 02:39 21.03704 6.21073 36895 ft 475 kts 168°
2026-04-21 02:39 20.97565 6.23686 36886 ft 475 kts 168°
2026-04-21 02:40 20.91419 6.26299 36887 ft 475 kts 168°
2026-04-21 02:40 20.85319 6.28892 36886 ft 475 kts 168°
2026-04-21 02:41 20.79140 6.31516 36883 ft 475 kts 168°
2026-04-21 02:41 20.72995 6.34122 36878 ft 475 kts 168°
2026-04-21 02:42 20.66899 6.36705 36868 ft 474 kts 168°
2026-04-21 02:42 20.60778 6.39299 36870 ft 473 kts 168°
2026-04-21 02:43 20.54661 6.41887 36878 ft 473 kts 168°
2026-04-21 02:43 20.48547 6.44470 36862 ft 473 kts 168°
2026-04-21 02:44 20.42438 6.47049 36850 ft 472 kts 168°
2026-04-21 02:44 20.36318 6.49631 36864 ft 473 kts 168°
2026-04-21 02:45 20.30189 6.52216 36864 ft 472 kts 168°
2026-04-21 02:45 20.24102 6.54783 36865 ft 470 kts 168°
2026-04-21 02:46 20.18006 6.57302 36853 ft 466 kts 172°
2026-04-21 02:46 20.14907 6.58159 36857 ft 454 kts 180°
2026-04-21 02:46 20.11815 6.58508 36857 ft 441 kts 188°
2026-04-21 02:46 20.08797 6.58336 36856 ft 429 kts 197°
2026-04-21 02:47 20.05917 6.57668 36857 ft 419 kts 206°
2026-04-21 02:47 20.00454 6.55620 36838 ft 415 kts 208°
2026-04-21 02:48 19.95062 6.53401 36851 ft 416 kts 209°
2026-04-21 02:48 19.89661 6.51186 36854 ft 416 kts 208°
2026-04-21 02:49 19.85166 6.49370 36851 ft 416 kts 208°
2026-04-21 02:49 19.79747 6.47197 36856 ft 416 kts 208°
2026-04-21 02:50 19.74324 6.45027 36856 ft 417 kts 208°
2026-04-21 02:50 19.68888 6.42853 36853 ft 417 kts 208°
2026-04-21 02:51 19.63444 6.40674 36854 ft 419 kts 208°
2026-04-21 02:51 19.57979 6.38488 36853 ft 420 kts 208°
2026-04-21 02:52 19.52501 6.36301 36854 ft 420 kts 208°
2026-04-21 02:52 19.47030 6.34119 36854 ft 420 kts 208°
2026-04-21 02:53 19.41554 6.31935 36853 ft 420 kts 208°
2026-04-21 02:53 19.36081 6.29754 36853 ft 420 kts 208°
2026-04-21 02:54 19.30603 6.27571 36848 ft 422 kts 208°
2026-04-21 02:54 19.25109 6.25384 36848 ft 422 kts 208°
2026-04-21 02:55 19.19610 6.23198 36850 ft 422 kts 208°
2026-04-21 02:55 19.14110 6.21013 36845 ft 422 kts 208°
2026-04-21 02:56 19.08651 6.18845 36852 ft 422 kts 208°
2026-04-21 02:56 19.00401 6.15571 36836 ft 422 kts 208°
2026-04-21 02:57 18.94892 6.13387 36848 ft 424 kts 208°
2026-04-21 02:57 18.89330 6.11184 36847 ft 424 kts 208°
2026-04-21 02:58 18.83845 6.09013 36847 ft 424 kts 208°
2026-04-21 02:58 18.78324 6.06828 36841 ft 425 kts 208°
2026-04-21 02:59 18.72789 6.04640 36840 ft 425 kts 208°
2026-04-21 02:59 18.67249 6.02452 36811 ft 425 kts 208°
2026-04-21 03:00 18.61706 6.00264 36846 ft 426 kts 208°
2026-04-21 03:00 18.56152 5.98073 36848 ft 427 kts 208°
2026-04-21 03:01 18.50584 5.95878 36845 ft 427 kts 208°
2026-04-21 03:01 18.45017 5.93684 36844 ft 429 kts 208°
2026-04-21 03:02 18.39421 5.91480 36843 ft 430 kts 208°
2026-04-21 03:02 18.33819 5.89278 36826 ft 430 kts 208°
2026-04-21 03:03 18.28213 5.87074 36840 ft 431 kts 208°
2026-04-21 03:03 18.22583 5.84863 36840 ft 432 kts 208°
2026-04-21 03:04 18.16956 5.82654 36841 ft 432 kts 208°
2026-04-21 03:04 18.11331 5.80448 36839 ft 432 kts 208°
2026-04-21 03:05 18.05701 5.78242 36836 ft 432 kts 208°
2026-04-21 03:05 18.00069 5.76035 36839 ft 432 kts 208°
2026-04-21 03:06 17.94444 5.73833 36837 ft 432 kts 208°
2026-04-21 03:06 17.88814 5.71630 36837 ft 432 kts 208°
2026-04-21 03:07 17.83211 5.69377 36838 ft 428 kts 212°
2026-04-21 03:07 17.78043 5.66424 36837 ft 421 kts 218°
2026-04-21 03:08 17.73015 5.63272 36834 ft 421 kts 218°
2026-04-21 03:08 17.68431 5.60358 36834 ft 421 kts 218°
2026-04-21 03:09 17.63424 5.57186 36835 ft 421 kts 218°
2026-04-21 03:09 17.58396 5.54014 36838 ft 422 kts 218°
2026-04-21 03:10 17.53400 5.50870 36835 ft 422 kts 218°
2026-04-21 03:10 17.48367 5.47705 36832 ft 422 kts 218°
2026-04-21 03:11 17.43302 5.44521 36829 ft 422 kts 218°
2026-04-21 03:11 17.38302 5.41380 36830 ft 422 kts 218°
2026-04-21 03:12 17.33266 5.38218 36828 ft 422 kts 218°
2026-04-21 03:12 17.28229 5.35057 36819 ft 423 kts 218°
2026-04-21 03:13 17.23174 5.31887 36825 ft 424 kts 218°
2026-04-21 03:13 17.18119 5.28720 36830 ft 423 kts 218°
2026-04-21 03:14 17.13068 5.25558 36827 ft 423 kts 218°
2026-04-21 03:14 17.08022 5.22400 36830 ft 423 kts 218°
2026-04-21 03:15 17.02972 5.19242 36828 ft 423 kts 218°
2026-04-21 03:15 16.97917 5.16082 36801 ft 423 kts 218°
2026-04-21 03:16 16.92855 5.12919 36825 ft 425 kts 218°
2026-04-21 03:16 16.87781 5.09751 36826 ft 425 kts 218°
2026-04-21 03:17 16.82696 5.06580 36826 ft 425 kts 218°
2026-04-21 03:17 16.77616 5.03413 36827 ft 425 kts 218°
2026-04-21 03:18 16.72503 5.00224 36823 ft 429 kts 218°
2026-04-21 03:18 16.67399 4.97050 36822 ft 426 kts 218°
2026-04-21 03:19 16.62318 4.93891 36810 ft 425 kts 218°
2026-04-21 03:19 16.57229 4.90724 36822 ft 427 kts 218°
2026-04-21 03:20 16.52130 4.87553 36818 ft 427 kts 218°
2026-04-21 03:20 16.47022 4.84381 36818 ft 427 kts 218°
2026-04-21 03:21 16.41920 4.81215 36814 ft 427 kts 218°
2026-04-21 03:21 16.36817 4.78050 36817 ft 427 kts 218°
2026-04-21 03:22 16.31711 4.74884 36819 ft 427 kts 218°
2026-04-21 03:22 16.26602 4.71718 36812 ft 428 kts 218°
2026-04-21 03:23 16.21465 4.68534 36811 ft 431 kts 218°
2026-04-21 03:23 16.16310 4.65346 36811 ft 431 kts 218°
2026-04-21 03:24 16.11157 4.62161 36807 ft 431 kts 218°
2026-04-21 03:24 16.06032 4.59012 36803 ft 432 kts 216°
2026-04-21 03:25 16.00560 4.56293 36799 ft 437 kts 212°
2026-04-21 03:25 15.95002 4.53725 36798 ft 437 kts 212°
2026-04-21 03:26 15.89427 4.51177 36803 ft 439 kts 212°
2026-04-21 03:26 15.83832 4.48616 36801 ft 440 kts 212°
2026-04-21 03:27 15.78238 4.46050 36799 ft 440 kts 212°
2026-04-21 03:27 15.72640 4.43481 36796 ft 440 kts 212°
2026-04-21 03:28 15.67048 4.40916 36793 ft 440 kts 212°
2026-04-21 03:28 15.61452 4.38350 36793 ft 440 kts 212°
2026-04-21 03:29 15.55849 4.35781 36792 ft 442 kts 212°
2026-04-21 03:29 15.50214 4.33200 36793 ft 443 kts 212°
2026-04-21 03:30 15.44578 4.30623 36790 ft 443 kts 211°
2026-04-21 03:30 15.38939 4.28045 36791 ft 443 kts 212°
2026-04-21 03:31 15.33305 4.25470 36788 ft 443 kts 211°
2026-04-21 03:31 15.27670 4.22896 36785 ft 443 kts 211°
2026-04-21 03:32 15.22030 4.20321 36780 ft 444 kts 211°
2026-04-21 03:32 15.16369 4.17737 36785 ft 445 kts 211°
2026-04-21 03:33 15.11659 4.15590 36782 ft 445 kts 211°
2026-04-21 03:33 15.05997 4.13010 36783 ft 445 kts 211°
2026-04-21 03:34 15.00331 4.10430 36782 ft 445 kts 211°
2026-04-21 03:34 14.94667 4.07852 36782 ft 445 kts 211°
2026-04-21 03:35 14.89002 4.05274 36782 ft 445 kts 211°
2026-04-21 03:35 14.83333 4.02696 36786 ft 446 kts 211°
2026-04-21 03:36 14.77655 4.00115 36785 ft 446 kts 211°
2026-04-21 03:36 14.71973 3.97535 36787 ft 446 kts 211°
2026-04-21 03:37 14.66286 3.94954 36786 ft 446 kts 211°
2026-04-21 03:37 14.60602 3.92376 36786 ft 446 kts 211°
2026-04-21 03:38 14.54919 3.89799 36787 ft 446 kts 211°
2026-04-21 03:38 14.49233 3.87223 36786 ft 446 kts 211°
2026-04-21 03:39 14.43549 3.84649 36788 ft 446 kts 211°
2026-04-21 03:39 14.37860 3.82074 36788 ft 446 kts 211°
2026-04-21 03:40 14.32171 3.79500 36790 ft 447 kts 211°
2026-04-21 03:40 14.26485 3.76929 36790 ft 447 kts 211°
2026-04-21 03:41 14.20793 3.74357 36788 ft 447 kts 211°
2026-04-21 03:41 14.15099 3.71785 36790 ft 447 kts 211°
2026-04-21 03:42 14.09400 3.69212 36791 ft 448 kts 211°
2026-04-21 03:42 14.03693 3.66638 36790 ft 448 kts 211°
2026-04-21 03:43 13.97984 3.64064 36790 ft 448 kts 211°
2026-04-21 03:43 13.92283 3.61495 36791 ft 448 kts 211°
2026-04-21 03:44 13.86573 3.58924 36793 ft 448 kts 211°
2026-04-21 03:44 13.80869 3.56356 36787 ft 448 kts 210°
2026-04-21 03:45 13.75142 3.53778 36794 ft 449 kts 210°
2026-04-21 03:45 13.69418 3.51205 36793 ft 449 kts 210°
2026-04-21 03:46 13.63687 3.48630 36796 ft 449 kts 210°
2026-04-21 03:46 13.57961 3.46058 36793 ft 449 kts 210°
2026-04-21 03:47 13.52236 3.43476 36790 ft 449 kts 211°
2026-04-21 03:47 13.46546 3.40827 36776 ft 449 kts 211°
2026-04-21 03:48 13.40860 3.38161 36792 ft 450 kts 211°
2026-04-21 03:48 13.35189 3.35516 36791 ft 451 kts 211°
2026-04-21 03:49 13.29439 3.32845 36788 ft 451 kts 211°
2026-04-21 03:49 13.23767 3.30213 36788 ft 451 kts 211°
2026-04-21 03:50 13.18047 3.27560 36784 ft 451 kts 211°
2026-04-21 03:50 13.12339 3.24913 36785 ft 450 kts 211°
2026-04-21 03:51 13.06616 3.22260 36790 ft 452 kts 211°
2026-04-21 03:51 13.00877 3.19600 36783 ft 453 kts 211°
2026-04-21 03:52 12.95127 3.16939 36781 ft 453 kts 211°
2026-04-21 03:52 12.89379 3.14280 36777 ft 453 kts 211°
2026-04-21 03:53 12.83631 3.11621 36787 ft 453 kts 211°
2026-04-21 03:53 12.77874 3.08960 36786 ft 454 kts 211°
2026-04-21 03:54 12.72119 3.06300 36779 ft 455 kts 210°
2026-04-21 03:54 12.66340 3.03630 36783 ft 456 kts 210°
2026-04-21 03:55 12.60553 3.00960 36783 ft 456 kts 210°
2026-04-21 03:55 12.54764 2.98290 36783 ft 456 kts 210°
2026-04-21 03:56 12.48973 2.95620 36780 ft 456 kts 210°
2026-04-21 03:56 12.43187 2.92952 36777 ft 456 kts 210°
2026-04-21 03:57 12.37396 2.90285 36770 ft 457 kts 210°
2026-04-21 03:57 12.31555 2.87594 36778 ft 458 kts 210°
2026-04-21 03:58 12.25745 2.84920 36783 ft 458 kts 210°
2026-04-21 03:58 12.19977 2.82267 36781 ft 458 kts 210°
2026-04-21 03:59 12.14162 2.79594 36776 ft 458 kts 210°
2026-04-21 04:00 12.05447 2.75590 36780 ft 458 kts 210°
2026-04-21 04:00 11.99633 2.72919 36777 ft 459 kts 210°
2026-04-21 04:01 11.93800 2.70240 36784 ft 461 kts 210°
2026-04-21 04:01 11.87946 2.67555 36784 ft 461 kts 210°
2026-04-21 04:02 11.82094 2.64872 36780 ft 461 kts 210°
2026-04-21 04:02 11.76245 2.62191 36784 ft 461 kts 210°
2026-04-21 04:03 11.70389 2.59508 36788 ft 461 kts 210°
2026-04-21 04:03 11.64526 2.56823 36782 ft 462 kts 210°
2026-04-21 04:04 11.58615 2.54117 36780 ft 463 kts 210°
2026-04-21 04:04 11.52769 2.51442 36783 ft 464 kts 210°
2026-04-21 04:05 11.46881 2.48750 36784 ft 464 kts 210°
2026-04-21 04:05 11.40997 2.46061 36782 ft 464 kts 210°
2026-04-21 04:06 11.35112 2.43372 36785 ft 464 kts 210°
2026-04-21 04:06 11.29221 2.40682 36782 ft 464 kts 210°
2026-04-21 04:07 11.23329 2.37991 36784 ft 464 kts 210°
2026-04-21 04:07 11.17434 2.35301 36784 ft 465 kts 210°
2026-04-21 04:08 11.11541 2.32614 36785 ft 465 kts 210°
2026-04-21 04:08 11.05633 2.29921 36784 ft 465 kts 210°
2026-04-21 04:09 10.99895 2.26990 36791 ft 457 kts 219°
2026-04-21 04:09 10.94864 2.23104 36790 ft 453 kts 224°
2026-04-21 04:10 10.90000 2.19036 36794 ft 452 kts 224°
2026-04-21 04:10 10.85167 2.14947 36794 ft 452 kts 224°
2026-04-21 04:11 10.80316 2.10867 36799 ft 452 kts 224°
2026-04-21 04:11 10.75461 2.06799 36799 ft 452 kts 224°
2026-04-21 04:12 10.70631 2.02759 36802 ft 452 kts 224°
2026-04-21 04:12 10.65740 1.98670 36802 ft 452 kts 224°
2026-04-21 04:13 10.60904 1.94628 36804 ft 452 kts 224°
2026-04-21 04:13 10.56048 1.90570 36801 ft 452 kts 224°
2026-04-21 04:14 10.51159 1.86484 36807 ft 456 kts 224°
2026-04-21 04:14 10.47046 1.83050 36811 ft 457 kts 224°
2026-04-21 04:15 10.41328 1.78279 36809 ft 457 kts 224°
2026-04-21 04:15 10.37206 1.74842 36808 ft 457 kts 224°
2026-04-21 04:16 10.32290 1.70743 36810 ft 457 kts 224°
2026-04-21 04:16 10.27373 1.66645 36816 ft 457 kts 224°
2026-04-21 04:17 10.22454 1.62546 36817 ft 457 kts 224°
2026-04-21 04:17 10.17538 1.58449 36816 ft 459 kts 224°
2026-04-21 04:18 10.12591 1.54330 36813 ft 461 kts 224°
2026-04-21 04:18 10.07633 1.50205 36815 ft 461 kts 224°
2026-04-21 04:19 10.02672 1.46080 36815 ft 461 kts 224°
2026-04-21 04:19 9.97713 1.41957 36816 ft 461 kts 224°
2026-04-21 04:20 9.92751 1.37833 36815 ft 461 kts 224°
2026-04-21 04:20 9.87790 1.33711 36810 ft 461 kts 224°
2026-04-21 04:21 9.82828 1.29589 36831 ft 461 kts 223°
2026-04-21 04:21 9.77849 1.25456 36847 ft 463 kts 223°
2026-04-21 04:22 9.72889 1.21339 36850 ft 464 kts 223°
2026-04-21 04:22 9.67887 1.17191 36850 ft 464 kts 223°
2026-04-21 04:23 9.62856 1.13020 36847 ft 464 kts 223°
2026-04-21 04:23 9.57858 1.08878 36840 ft 464 kts 223°
2026-04-21 04:24 9.52862 1.04739 36831 ft 464 kts 223°
2026-04-21 04:24 9.47858 1.00616 36817 ft 465 kts 221°
2026-04-21 04:24 9.45105 0.98924 36814 ft 471 kts 207°
2026-04-21 04:25 9.42089 0.97624 36813 ft 473 kts 205°
2026-04-21 04:25 9.35952 0.95191 36818 ft 474 kts 204°
2026-04-21 04:26 9.29797 0.92778 36818 ft 474 kts 204°
2026-04-21 04:26 9.23642 0.90368 36816 ft 474 kts 204°
2026-04-21 04:27 9.17484 0.87960 36818 ft 474 kts 204°
2026-04-21 04:27 9.11325 0.85553 36818 ft 474 kts 204°
2026-04-21 04:28 9.05164 0.83146 36815 ft 474 kts 204°
2026-04-21 04:28 8.99013 0.80743 36817 ft 474 kts 204°
2026-04-21 04:29 8.92852 0.78338 36822 ft 474 kts 204°
2026-04-21 04:29 8.86690 0.75933 36822 ft 474 kts 204°
2026-04-21 04:30 8.80531 0.73530 36816 ft 475 kts 204°
2026-04-21 04:30 8.74363 0.71124 36821 ft 475 kts 204°
2026-04-21 04:31 8.68187 0.68717 36820 ft 476 kts 204°
2026-04-21 04:31 8.62006 0.66308 36826 ft 476 kts 204°
2026-04-21 04:32 8.55822 0.63899 36825 ft 476 kts 204°
2026-04-21 04:32 8.49637 0.61491 36828 ft 476 kts 204°
2026-04-21 04:33 8.43452 0.59083 36825 ft 476 kts 204°
2026-04-21 04:33 8.37269 0.56676 36827 ft 476 kts 204°
2026-04-21 04:34 8.31083 0.54269 36823 ft 477 kts 204°
2026-04-21 04:34 8.24896 0.51863 36826 ft 477 kts 204°
2026-04-21 04:35 8.18748 0.49473 36830 ft 477 kts 204°
2026-04-21 04:35 8.12562 0.47069 36845 ft 477 kts 204°
2026-04-21 04:36 8.06374 0.44664 36818 ft 476 kts 204°
2026-04-21 04:36 8.00186 0.42262 36822 ft 477 kts 204°
2026-04-21 04:37 7.93992 0.39856 36830 ft 476 kts 204°
2026-04-21 04:37 7.87833 0.37466 36831 ft 473 kts 203°
2026-04-21 04:38 7.81701 0.35086 36832 ft 471 kts 203°
2026-04-21 04:38 7.75592 0.32717 36834 ft 470 kts 203°
2026-04-21 04:39 7.69485 0.30349 36829 ft 471 kts 203°
2026-04-21 04:39 7.63376 0.27980 36750 ft 468 kts 203°
2026-04-21 04:39 7.60343 0.26806 36201 ft 467 kts 203°
2026-04-21 04:40 7.57302 0.25626 35418 ft 471 kts 203°
2026-04-21 04:40 7.54225 0.24433 34608 ft 477 kts 203°
2026-04-21 04:40 7.51109 0.23226 33885 ft 481 kts 203°
2026-04-21 04:40 7.47980 0.22014 33093 ft 484 kts 203°
2026-04-21 04:41 7.44838 0.20797 32349 ft 485 kts 203°
2026-04-21 04:41 7.41682 0.19575 31612 ft 486 kts 203°
2026-04-21 04:41 7.38517 0.18350 30871 ft 488 kts 203°
2026-04-21 04:41 7.35341 0.17121 30129 ft 489 kts 202°
2026-04-21 04:42 7.32161 0.15890 29345 ft 490 kts 202°
2026-04-21 04:42 7.28990 0.14663 28657 ft 487 kts 202°
2026-04-21 04:42 7.25837 0.13443 28020 ft 484 kts 202°
2026-04-21 04:42 7.22710 0.12234 27409 ft 480 kts 201°
2026-04-21 04:43 7.19608 0.11033 26823 ft 475 kts 201°
2026-04-21 04:43 7.16537 0.09845 26250 ft 471 kts 201°
2026-04-21 04:43 7.13492 0.08668 25702 ft 466 kts 201°
2026-04-21 04:43 7.10476 0.07502 25145 ft 462 kts 201°
2026-04-21 04:44 7.07528 0.06362 24610 ft 458 kts 200°
2026-04-21 04:44 7.04528 0.05202 24046 ft 454 kts 200°
2026-04-21 04:44 7.01625 0.04080 23521 ft 450 kts 200°
2026-04-21 04:44 6.98714 0.02955 22938 ft 447 kts 200°
2026-04-21 04:45 6.95827 0.01839 22342 ft 443 kts 200°
2026-04-21 04:45 6.92965 0.00734 21755 ft 439 kts 200°
2026-04-21 04:45 6.90127 -0.00363 21166 ft 435 kts 200°
2026-04-21 04:45 6.87311 -0.01451 20615 ft 431 kts 199°
2026-04-21 04:46 6.84520 -0.02529 20073 ft 427 kts 199°
2026-04-21 04:46 6.81757 -0.03595 19541 ft 424 kts 199°
2026-04-21 04:46 6.79013 -0.04655 19016 ft 420 kts 199°
2026-04-21 04:46 6.76295 -0.05704 18487 ft 417 kts 199°
2026-04-21 04:47 6.73597 -0.06745 17944 ft 414 kts 199°
2026-04-21 04:47 6.70916 -0.07780 17338 ft 411 kts 199°
2026-04-21 04:47 6.68256 -0.08807 16729 ft 409 kts 199°
2026-04-21 04:47 6.65605 -0.09807 16142 ft 406 kts 196°
2026-04-21 04:48 6.62860 -0.10368 15563 ft 399 kts 180°
2026-04-21 04:48 6.60107 -0.10259 15024 ft 394 kts 172°
2026-04-21 04:48 6.57392 -0.09987 14484 ft 391 kts 171°
2026-04-21 04:48 6.54696 -0.09706 13972 ft 388 kts 171°
2026-04-21 04:49 6.52022 -0.09432 13450 ft 385 kts 171°
2026-04-21 04:49 6.49367 -0.09163 12874 ft 382 kts 171°
2026-04-21 04:49 6.46729 -0.08899 12320 ft 380 kts 171°
2026-04-21 04:49 6.44105 -0.08638 11763 ft 377 kts 171°
2026-04-21 04:50 6.41501 -0.08379 11214 ft 375 kts 171°
2026-04-21 04:50 6.38915 -0.08124 10703 ft 372 kts 171°
2026-04-21 04:50 6.36370 -0.07873 10422 ft 363 kts 170°
2026-04-21 04:50 6.33899 -0.07631 10203 ft 351 kts 170°
2026-04-21 04:51 6.31505 -0.07396 10024 ft 340 kts 170°
2026-04-21 04:51 6.29188 -0.07167 9827 ft 330 kts 170°
2026-04-21 04:51 6.26943 -0.06945 9641 ft 320 kts 169°
2026-04-21 04:51 6.24760 -0.06729 9456 ft 311 kts 169°
2026-04-21 04:52 6.22640 -0.06520 9287 ft 302 kts 169°
2026-04-21 04:52 6.20568 -0.06314 9026 ft 297 kts 170°
2026-04-21 04:52 6.18518 -0.06112 8695 ft 295 kts 169°
2026-04-21 04:52 6.16475 -0.05907 8357 ft 294 kts 169°
2026-04-21 04:53 6.14438 -0.05704 8035 ft 293 kts 169°
2026-04-21 04:53 6.12422 -0.05505 7712 ft 291 kts 169°
2026-04-21 04:53 6.10406 -0.05305 7391 ft 290 kts 170°
2026-04-21 04:53 6.08430 -0.05109 7096 ft 288 kts 169°
2026-04-21 04:54 6.06443 -0.04911 6805 ft 287 kts 170°
2026-04-21 04:54 6.04430 -0.04749 6495 ft 287 kts 176°
2026-04-21 04:54 6.02467 -0.04705 6163 ft 285 kts 170°
2026-04-21 04:54 6.00503 -0.04496 5827 ft 283 kts 169°
2026-04-21 04:55 5.98555 -0.04266 5524 ft 281 kts 169°
2026-04-21 04:55 5.96583 -0.04193 5200 ft 282 kts 182°
2026-04-21 04:55 5.94683 -0.04556 4912 ft 281 kts 192°
2026-04-21 04:55 5.92807 -0.05075 4609 ft 278 kts 194°
2026-04-21 04:56 5.90950 -0.05623 4268 ft 277 kts 195°
2026-04-21 04:56 5.89111 -0.06178 3938 ft 275 kts 195°
2026-04-21 04:56 5.87289 -0.06732 3605 ft 273 kts 196°
2026-04-21 04:56 5.85478 -0.07287 3287 ft 270 kts 197°
2026-04-21 04:57 5.83685 -0.07836 2940 ft 269 kts 197°
2026-04-21 04:57 5.81908 -0.08382 2641 ft 265 kts 198°
2026-04-21 04:57 5.80149 -0.08878 2370 ft 261 kts 193°
2026-04-21 04:57 5.78449 -0.09370 2077 ft 247 kts 206°
2026-04-21 04:58 5.76970 -0.10061 1994 ft 221 kts 204°
2026-04-21 04:58 5.75607 -0.10561 1993 ft 196 kts 200°
2026-04-21 04:58 5.74401 -0.10994 2017 ft 174 kts 204°
2026-04-21 04:58 5.73343 -0.11430 1994 ft 157 kts 205°
2026-04-21 04:59 5.72361 -0.11841 1995 ft 152 kts 205°
2026-04-21 04:59 5.71380 -0.12244 1930 ft 152 kts 204°
2026-04-21 04:59 5.70417 -0.12634 1772 ft 144 kts 205°
2026-04-21 04:59 5.69524 -0.13003 1614 ft 136 kts 205°
2026-04-21 05:00 5.68663 -0.13366 1395 ft 134 kts 206°
2026-04-21 05:00 5.67803 -0.13731 1214 ft 134 kts 205°
2026-04-21 05:00 5.66379 -0.14338 1032 ft 135 kts 205°
2026-04-21 05:01 5.65502 -0.14682 895 ft 136 kts 202°
2026-04-21 05:01 5.64637 -0.15031 763 ft 133 kts 205°
2026-04-21 05:01 5.63776 -0.15381 681 ft 133 kts 205°
2026-04-21 05:01 5.62907 -0.15728 517 ft 134 kts 205°
2026-04-21 05:02 5.62055 -0.16083 351 ft 131 kts 206°
2026-04-21 05:02 5.61220 -0.16450 232 ft 129 kts 199°
2026-04-21 05:02 5.60768 -0.16628 228 ft 30 kts 200°
2026-04-21 05:02 5.60616 -0.16687 225 ft 22 kts 202°
2026-04-21 05:03 5.60543 -0.16717 226 ft 7 kts 202°
2026-04-21 05:03 5.60488 -0.16739 227 ft 11 kts 202°
2026-04-21 05:03 5.60399 -0.16775 226 ft 18 kts 202°
2026-04-21 05:03 5.60270 -0.16829 219 ft 20 kts 203°
2026-04-21 05:04 5.60158 -0.16874 221 ft 14 kts 200°
2026-04-21 05:04 5.60071 -0.16912 222 ft 14 kts 202°
2026-04-21 05:04 5.59984 -0.16961 217 ft 15 kts 214°
2026-04-21 05:04 5.59908 -0.17028 220 ft 14 kts 226°
2026-04-21 05:05 5.59854 -0.17094 221 ft 10 kts 232°
2026-04-21 05:05 5.59831 -0.17148 216 ft 7 kts 268°
2026-04-21 05:05 5.59834 -0.17158 215 ft 0 kts 285°
2026-04-21 05:05 5.59842 -0.17183 217 ft 0 kts 296°
2026-04-21 05:06 5.59849 -0.17192 213 ft 4 kts 312°
2026-04-21 05:06 5.59906 -0.17183 213 ft 13 kts 19°
2026-04-21 05:06 5.59991 -0.17150 217 ft 13 kts 22°
2026-04-21 05:06 5.60050 -0.17134 216 ft 6 kts 352°
2026-04-21 05:07 5.60073 -0.17152 219 ft 3 kts 305°
2026-04-21 05:07 5.60085 -0.17175 220 ft 4 kts 296°
2026-04-21 05:07 5.60096 -0.17200 222 ft 4 kts 292°
2026-04-21 05:07 5.60099 -0.17208 224 ft 0 kts 292°
2026-04-21 05:08 5.60100 -0.17210 224 ft 0 kts 293°
2026-04-21 05:08 5.60101 -0.17211 223 ft 1 kts 293°
2026-04-21 05:08 5.60101 -0.17212 223 ft 0 kts 293°